Time,TemperatureF,DewpointF,PressureIn,WindDirection,WindDirectionDegrees,WindSpeedMPH,WindSpeedGustMPH,Humidity,HourlyPrecipIn,Conditions,Clouds,dailyrainin,SoftwareType,DateUTC
2013-09-08 00:01:00,68.0,53.2,29.96,NNW,342,0.0,0.0,59,0.00,,---,0.00,VWS V13.01,2013-09-08 04:01:00,
2013-09-08 00:02:00,68.0,53.2,29.96,NNW,342,0.0,0.0,59,0.00,,---,0.00,VWS V13.01,2013-09-08 04:02:00,
2013-09-08 00:07:00,68.0,53.2,29.96,NNW,342,0.0,0.0,59,0.00,,---,0.00,VWS V13.01,2013-09-08 04:07:00,
2013-09-08 00:12:00,68.0,53.2,29.96,NNW,342,0.0,0.0,59,0.00,,---,0.00,VWS V13.01,2013-09-08 04:12:00,
2013-09-08 00:17:00,67.8,53.4,29.96,NNW,342,0.0,0.0,60,0.00,,---,0.00,VWS V13.01,2013-09-08 04:17:00,
2013-09-08 00:22:00,67.8,53.4,29.96,NNW,342,0.0,0.0,60,0.00,,---,0.00,VWS V13.01,2013-09-08 04:22:00,
2013-09-08 00:27:00,67.8,53.4,29.96,NNW,342,0.0,0.0,60,0.00,,---,0.00,VWS V13.01,2013-09-08 04:27:00,
2013-09-08 00:32:00,67.6,53.3,29.96,NNW,342,0.0,0.0,60,0.00,,---,0.00,VWS V13.01,2013-09-08 04:32:00,
2013-09-08 00:37:00,67.6,53.3,29.96,NNW,342,0.0,0.0,60,0.00,,---,0.00,VWS V13.01,2013-09-08 04:37:00,
2013-09-08 00:42:00,67.6,53.7,29.96,NNW,342,0.0,0.0,61,0.00,,---,0.00,VWS V13.01,2013-09-08 04:42:00,
2013-09-08 00:47:00,67.6,53.7,29.96,NNW,342,0.0,0.0,61,0.00,,---,0.00,VWS V13.01,2013-09-08 04:47:00,
2013-09-08 00:52:00,67.5,53.6,29.96,NNW,342,0.0,0.0,61,0.00,,---,0.00,VWS V13.01,2013-09-08 04:52:00,
2013-09-08 00:57:00,67.5,53.6,29.96,NNW,342,0.0,0.0,61,0.00,,---,0.00,VWS V13.01,2013-09-08 04:57:00,
2013-09-08 01:02:00,67.3,53.8,29.96,NNW,342,0.0,0.0,62,0.00,,---,0.00,VWS V13.01,2013-09-08 05:02:00,
2013-09-08 01:07:00,67.3,53.8,29.96,NNW,342,0.0,0.0,62,0.00,,---,0.00,VWS V13.01,2013-09-08 05:07:00,
2013-09-08 01:12:00,67.3,53.8,29.96,NNW,342,0.0,0.0,62,0.00,,---,0.00,VWS V13.01,2013-09-08 05:12:00,
2013-09-08 01:17:00,67.3,54.3,29.96,NNW,342,0.0,0.0,63,0.00,,---,0.00,VWS V13.01,2013-09-08 05:17:00,
2013-09-08 01:22:00,67.3,54.3,29.96,NNW,342,0.0,0.0,63,0.00,,---,0.00,VWS V13.01,2013-09-08 05:22:00,
2013-09-08 01:27:00,67.3,54.3,29.96,NNW,342,0.0,0.0,63,0.00,,---,0.00,VWS V13.01,2013-09-08 05:27:00,
2013-09-08 01:32:00,67.3,54.3,29.96,NNW,342,0.0,0.0,63,0.00,,---,0.00,VWS V13.01,2013-09-08 05:32:00,
2013-09-08 01:37:00,67.1,54.1,29.96,NNW,342,0.0,0.0,63,0.00,,---,0.00,VWS V13.01,2013-09-08 05:37:00,
2013-09-08 01:42:00,67.1,54.1,29.96,NNW,342,0.0,0.0,63,0.00,,---,0.00,VWS V13.01,2013-09-08 05:42:00,
2013-09-08 01:47:00,67.1,54.5,29.96,NNW,342,0.0,0.0,64,0.00,,---,0.00,VWS V13.01,2013-09-08 05:47:00,
2013-09-08 01:52:00,67.1,54.5,29.96,NNW,342,0.0,0.0,64,0.00,,---,0.00,VWS V13.01,2013-09-08 05:52:00,
2013-09-08 01:57:00,67.1,54.5,29.96,NNW,342,0.0,0.0,64,0.00,,---,0.00,VWS V13.01,2013-09-08 05:57:00,
2013-09-08 02:02:00,67.1,54.5,29.96,NNW,342,0.0,0.0,64,0.00,,---,0.00,VWS V13.01,2013-09-08 06:02:00,
2013-09-08 02:07:00,67.1,54.5,29.96,NNW,342,0.0,0.0,64,0.00,,---,0.00,VWS V13.01,2013-09-08 06:07:00,
2013-09-08 02:12:00,67.1,54.5,29.96,NNW,342,0.0,0.0,64,0.00,,---,0.00,VWS V13.01,2013-09-08 06:12:00,
2013-09-08 02:17:00,66.9,53.9,29.96,NNW,342,0.0,0.0,63,0.00,,---,0.00,VWS V13.01,2013-09-08 06:17:00,
2013-09-08 02:22:00,66.9,53.9,29.96,NNW,342,0.0,0.0,63,0.00,,---,0.00,VWS V13.01,2013-09-08 06:22:00,
2013-09-08 02:27:00,66.9,53.9,29.96,NNW,342,0.0,0.0,63,0.00,,---,0.00,VWS V13.01,2013-09-08 06:27:00,
2013-09-08 02:32:00,66.9,53.9,29.96,NNW,342,0.0,0.0,63,0.00,,---,0.00,VWS V13.01,2013-09-08 06:32:00,
2013-09-08 02:37:00,66.7,53.8,29.96,NNW,342,0.0,0.0,63,0.00,,---,0.00,VWS V13.01,2013-09-08 06:37:00,
2013-09-08 02:42:00,66.7,53.8,29.96,NNW,342,0.0,0.0,63,0.00,,---,0.00,VWS V13.01,2013-09-08 06:42:00,
2013-09-08 02:47:00,66.7,53.8,29.96,NNW,342,0.0,0.0,63,0.00,,---,0.00,VWS V13.01,2013-09-08 06:47:00,
2013-09-08 02:52:00,66.6,54.0,29.96,NNW,342,0.0,0.0,64,0.00,,---,0.00,VWS V13.01,2013-09-08 06:52:00,
2013-09-08 02:57:00,66.6,53.6,29.96,NNW,342,0.0,0.0,63,0.00,,---,0.00,VWS V13.01,2013-09-08 06:57:00,
2013-09-08 03:02:00,66.6,54.0,29.96,NNW,342,0.0,0.0,64,0.00,,---,0.00,VWS V13.01,2013-09-08 07:02:00,
2013-09-08 03:07:00,66.6,54.0,29.96,NNW,342,0.0,0.0,64,0.00,,---,0.00,VWS V13.01,2013-09-08 07:07:00,
2013-09-08 03:12:00,66.4,53.8,29.96,NNW,342,0.0,0.0,64,0.00,,---,0.00,VWS V13.01,2013-09-08 07:12:00,
2013-09-08 03:17:00,66.4,53.8,29.96,NNW,342,0.0,0.0,64,0.00,,---,0.00,VWS V13.01,2013-09-08 07:17:00,
2013-09-08 03:22:00,66.2,53.7,29.96,NNW,342,0.0,0.0,64,0.00,,---,0.00,VWS V13.01,2013-09-08 07:22:00,
2013-09-08 03:27:00,66.2,53.7,29.96,NNW,342,0.0,0.0,64,0.00,,---,0.00,VWS V13.01,2013-09-08 07:27:00,
2013-09-08 03:32:00,66.2,53.7,29.96,NNW,342,0.0,0.0,64,0.00,,---,0.00,VWS V13.01,2013-09-08 07:32:00,
2013-09-08 03:37:00,66.0,53.5,29.96,NNW,342,0.0,0.0,64,0.00,,---,0.00,VWS V13.01,2013-09-08 07:37:00,
2013-09-08 03:42:00,65.8,53.3,29.96,NNW,342,0.0,0.0,64,0.00,,---,0.00,VWS V13.01,2013-09-08 07:42:00,
2013-09-08 03:47:00,65.8,53.3,29.96,NNW,342,0.0,0.0,64,0.00,,---,0.00,VWS V13.01,2013-09-08 07:47:00,
2013-09-08 03:52:00,65.7,53.2,29.96,NNW,342,0.0,0.0,64,0.00,,---,0.00,VWS V13.01,2013-09-08 07:52:00,
2013-09-08 03:57:00,65.5,53.0,29.96,NNW,342,0.0,0.0,64,0.00,,---,0.00,VWS V13.01,2013-09-08 07:57:00,
2013-09-08 04:02:00,65.5,53.0,29.96,NNW,342,0.0,0.0,64,0.00,,---,0.00,VWS V13.01,2013-09-08 08:02:00,
2013-09-08 04:07:00,65.5,53.0,29.96,NNW,342,0.0,0.0,64,0.00,,---,0.00,VWS V13.01,2013-09-08 08:07:00,
2013-09-08 04:12:00,65.5,53.4,29.96,NNW,342,0.0,0.0,65,0.00,,---,0.00,VWS V13.01,2013-09-08 08:12:00,
2013-09-08 04:17:00,65.5,53.4,29.96,NNW,342,0.0,0.0,65,0.00,,---,0.00,VWS V13.01,2013-09-08 08:17:00,
2013-09-08 04:22:00,65.1,53.1,29.96,NNW,342,0.0,0.0,65,0.00,,---,0.00,VWS V13.01,2013-09-08 08:22:00,
2013-09-08 04:27:00,65.1,53.1,29.96,NNW,342,0.0,0.0,65,0.00,,---,0.00,VWS V13.01,2013-09-08 08:27:00,
2013-09-08 04:32:00,64.9,52.9,29.96,NNW,342,0.0,0.0,65,0.00,,---,0.00,VWS V13.01,2013-09-08 08:32:00,
2013-09-08 04:37:00,64.8,52.7,29.96,NNE,25,0.0,0.0,65,0.00,,---,0.00,VWS V13.01,2013-09-08 08:37:00,
2013-09-08 04:42:00,64.8,52.3,29.96,ENE,63,0.0,0.0,64,0.00,,---,0.00,VWS V13.01,2013-09-08 08:42:00,
2013-09-08 04:47:00,64.8,52.3,29.96,SE,140,0.0,0.0,64,0.00,,---,0.00,VWS V13.01,2013-09-08 08:47:00,
2013-09-08 04:52:00,64.8,52.3,29.96,North,353,0.0,0.0,64,0.00,,---,0.00,VWS V13.01,2013-09-08 08:52:00,
2013-09-08 04:57:00,64.8,51.9,29.96,North,353,0.0,0.0,63,0.00,,---,0.00,VWS V13.01,2013-09-08 08:57:00,
2013-09-08 05:02:00,64.8,51.9,29.96,SE,126,0.0,0.0,63,0.00,,---,0.00,VWS V13.01,2013-09-08 09:02:00,
2013-09-08 05:07:00,64.8,52.3,29.96,SE,127,0.0,0.0,64,0.00,,---,0.00,VWS V13.01,2013-09-08 09:07:00,
2013-09-08 05:12:00,64.8,51.9,29.96,SE,127,0.0,0.0,63,0.00,,---,0.00,VWS V13.01,2013-09-08 09:12:00,
2013-09-08 05:17:00,64.8,51.9,29.96,SE,127,0.0,0.0,63,0.00,,---,0.00,VWS V13.01,2013-09-08 09:17:00,
2013-09-08 05:22:00,64.6,51.7,29.96,SE,127,0.0,0.0,63,0.00,,---,0.00,VWS V13.01,2013-09-08 09:22:00,
2013-09-08 05:27:00,64.4,51.5,29.96,NNE,13,0.0,0.0,63,0.00,,---,0.00,VWS V13.01,2013-09-08 09:27:00,
2013-09-08 05:32:00,64.2,50.9,29.96,NNE,13,0.0,0.0,62,0.00,,---,0.00,VWS V13.01,2013-09-08 09:32:00,
2013-09-08 05:37:00,64.2,50.9,29.96,NNE,13,0.0,0.0,62,0.00,,---,0.00,VWS V13.01,2013-09-08 09:37:00,
2013-09-08 05:42:00,64.2,50.9,29.96,NNE,13,0.0,0.0,62,0.00,,---,0.00,VWS V13.01,2013-09-08 09:42:00,
2013-09-08 05:47:00,64.2,50.9,29.96,NNE,13,0.0,0.0,62,0.00,,---,0.00,VWS V13.01,2013-09-08 09:47:00,
2013-09-08 05:52:00,64.2,50.9,29.96,NNE,13,0.0,0.0,62,0.00,,---,0.00,VWS V13.01,2013-09-08 09:52:00,
2013-09-08 05:57:00,64.2,50.5,29.96,East,90,0.0,0.0,61,0.00,,---,0.00,VWS V13.01,2013-09-08 09:57:00,
2013-09-08 06:02:00,64.2,50.5,29.96,ESE,118,0.0,0.0,61,0.00,,---,0.00,VWS V13.01,2013-09-08 10:02:00,
2013-09-08 06:07:00,64.4,50.7,29.96,WSW,249,0.0,0.0,61,0.00,,---,0.00,VWS V13.01,2013-09-08 10:07:00,
2013-09-08 06:12:00,64.4,50.2,29.96,WSW,249,0.0,0.0,60,0.00,,---,0.00,VWS V13.01,2013-09-08 10:12:00,
2013-09-08 06:17:00,64.6,50.0,29.96,West,260,0.0,0.0,59,0.00,,---,0.00,VWS V13.01,2013-09-08 10:17:00,
2013-09-08 06:22:00,64.6,50.0,29.96,West,260,0.0,0.0,59,0.00,,---,0.00,VWS V13.01,2013-09-08 10:22:00,
2013-09-08 06:27:00,64.8,49.7,29.96,SE,131,0.0,0.0,58,0.00,,---,0.00,VWS V13.01,2013-09-08 10:27:00,
2013-09-08 06:32:00,64.8,49.2,29.96,ESE,123,0.0,0.0,57,0.00,,---,0.00,VWS V13.01,2013-09-08 10:32:00,
2013-09-08 06:37:00,64.8,49.2,29.96,ESE,123,0.0,0.0,57,0.00,,---,0.00,VWS V13.01,2013-09-08 10:37:00,
2013-09-08 06:42:00,64.8,48.2,29.96,ENE,59,0.0,0.0,55,0.00,,---,0.00,VWS V13.01,2013-09-08 10:42:00,
2013-09-08 06:47:00,64.9,48.4,29.96,ESE,117,0.0,0.0,55,0.00,,---,0.00,VWS V13.01,2013-09-08 10:47:00,
2013-09-08 06:52:00,64.9,48.4,29.96,ESE,116,0.0,0.0,55,0.00,,---,0.00,VWS V13.01,2013-09-08 10:52:00,
2013-09-08 06:57:00,64.8,48.2,29.96,ESE,117,0.0,0.0,55,0.00,,---,0.00,VWS V13.01,2013-09-08 10:57:00,
2013-09-08 07:02:00,64.8,48.2,29.96,ESE,117,0.0,0.0,55,0.00,,---,0.00,VWS V13.01,2013-09-08 11:02:00,
2013-09-08 07:07:00,64.8,48.2,29.96,ESE,117,0.0,0.0,55,0.00,,---,0.00,VWS V13.01,2013-09-08 11:07:00,
2013-09-08 07:12:00,64.8,47.8,29.96,ESE,117,0.0,0.0,54,0.00,,---,0.00,VWS V13.01,2013-09-08 11:12:00,
2013-09-08 07:17:00,64.8,47.8,29.96,ESE,117,0.0,0.0,54,0.00,,---,0.00,VWS V13.01,2013-09-08 11:17:00,
2013-09-08 07:22:00,64.8,47.8,29.96,ESE,117,0.0,0.0,54,0.00,,---,0.00,VWS V13.01,2013-09-08 11:22:00,
2013-09-08 07:27:00,64.6,47.6,29.96,ESE,117,0.0,0.0,54,0.00,,---,0.00,VWS V13.01,2013-09-08 11:27:00,
2013-09-08 07:32:00,64.6,48.1,29.96,ESE,117,0.0,0.0,55,0.00,,---,0.00,VWS V13.01,2013-09-08 11:32:00,
2013-09-08 07:37:00,64.4,47.9,29.96,ESE,117,0.0,0.0,55,0.00,,---,0.00,VWS V13.01,2013-09-08 11:37:00,
2013-09-08 07:42:00,64.4,47.9,29.96,ESE,117,0.0,0.0,55,0.00,,---,0.00,VWS V13.01,2013-09-08 11:42:00,
2013-09-08 07:47:00,64.4,47.9,29.96,ESE,117,0.0,0.0,55,0.00,,---,0.00,VWS V13.01,2013-09-08 11:47:00,
2013-09-08 07:52:00,64.4,48.4,29.96,ESE,117,0.0,0.0,56,0.00,,---,0.00,VWS V13.01,2013-09-08 11:52:00,
2013-09-08 07:57:00,64.6,48.5,29.96,ESE,116,0.0,0.0,56,0.00,,---,0.00,VWS V13.01,2013-09-08 11:57:00,
2013-09-08 08:02:00,64.8,48.7,29.96,ESE,117,0.0,0.0,56,0.00,,---,0.00,VWS V13.01,2013-09-08 12:02:00,
2013-09-08 08:07:00,64.8,49.2,29.96,ESE,117,0.0,0.0,57,0.00,,---,0.00,VWS V13.01,2013-09-08 12:07:00,
2013-09-08 08:12:00,64.8,49.2,29.96,ESE,117,0.0,0.0,57,0.00,,---,0.00,VWS V13.01,2013-09-08 12:12:00,
2013-09-08 08:17:00,64.8,49.2,29.96,ESE,117,0.0,0.0,57,0.00,,---,0.00,VWS V13.01,2013-09-08 12:17:00,
2013-09-08 08:22:00,64.9,48.9,29.96,ESE,116,0.0,0.0,56,0.00,,---,0.00,VWS V13.01,2013-09-08 12:22:00,
2013-09-08 08:27:00,65.1,49.5,29.96,ESE,116,0.0,0.0,57,0.00,,---,0.00,VWS V13.01,2013-09-08 12:27:00,
2013-09-08 08:32:00,65.3,49.2,29.96,ESE,116,0.0,0.0,56,0.00,,---,0.00,VWS V13.01,2013-09-08 12:32:00,
2013-09-08 08:37:00,65.3,49.2,29.96,ESE,116,0.0,0.0,56,0.00,,---,0.00,VWS V13.01,2013-09-08 12:37:00,
2013-09-08 08:42:00,65.7,50.0,29.96,ESE,116,0.0,0.0,57,0.00,,---,0.00,VWS V13.01,2013-09-08 12:42:00,
2013-09-08 08:47:00,65.8,50.2,29.96,ESE,116,0.0,0.0,57,0.00,,---,0.00,VWS V13.01,2013-09-08 12:47:00,
2013-09-08 08:52:00,66.4,51.2,29.96,ESE,116,0.0,0.0,58,0.00,,---,0.00,VWS V13.01,2013-09-08 12:52:00,
2013-09-08 08:57:00,66.4,51.2,29.96,ESE,116,0.0,0.0,58,0.00,,---,0.00,VWS V13.01,2013-09-08 12:57:00,
2013-09-08 09:02:00,66.9,51.7,29.96,ESE,116,0.0,0.0,58,0.00,,---,0.00,VWS V13.01,2013-09-08 13:02:00,
2013-09-08 09:07:00,67.1,51.4,29.96,ESE,116,0.0,0.0,57,0.00,,---,0.00,VWS V13.01,2013-09-08 13:07:00,
2013-09-08 09:12:00,67.8,50.1,29.96,ESE,116,0.0,0.0,53,0.00,,---,0.00,VWS V13.01,2013-09-08 13:12:00,
2013-09-08 09:17:00,67.8,50.1,29.96,ESE,116,0.0,0.0,53,0.00,,---,0.00,VWS V13.01,2013-09-08 13:17:00,
2013-09-08 09:22:00,68.9,49.5,29.96,ESE,116,0.0,0.0,50,0.00,,---,0.00,VWS V13.01,2013-09-08 13:22:00,
2013-09-08 09:27:00,69.4,50.0,29.96,ESE,116,0.0,0.0,50,0.00,,---,0.00,VWS V13.01,2013-09-08 13:27:00,
2013-09-08 09:32:00,69.6,49.1,29.96,ESE,116,0.0,0.0,48,0.00,,---,0.00,VWS V13.01,2013-09-08 13:32:00,
2013-09-08 09:37:00,70.2,49.0,29.96,ESE,116,0.0,0.0,47,0.00,,---,0.00,VWS V13.01,2013-09-08 13:37:00,
2013-09-08 09:42:00,70.2,49.0,29.96,ESE,116,0.0,0.0,47,0.00,,---,0.00,VWS V13.01,2013-09-08 13:42:00,
2013-09-08 09:47:00,70.5,48.8,29.96,ESE,116,0.0,0.0,46,0.00,,---,0.00,VWS V13.01,2013-09-08 13:47:00,
2013-09-08 09:52:00,70.9,49.1,29.96,ESE,116,0.0,0.0,46,0.00,,---,0.00,VWS V13.01,2013-09-08 13:52:00,
2013-09-08 09:57:00,71.2,48.2,29.96,WSW,237,0.0,0.0,44,0.00,,---,0.00,VWS V13.01,2013-09-08 13:57:00,
2013-09-08 10:02:00,71.8,48.1,29.96,WSW,237,0.0,0.0,43,0.00,,---,0.00,VWS V13.01,2013-09-08 14:02:00,
2013-09-08 10:07:00,72.0,48.3,29.96,WSW,237,0.0,0.0,43,0.00,,---,0.00,VWS V13.01,2013-09-08 14:07:00,
2013-09-08 10:12:00,72.5,48.1,29.96,WSW,237,0.0,0.0,42,0.00,,---,0.00,VWS V13.01,2013-09-08 14:12:00,
2013-09-08 10:17:00,72.7,48.3,29.96,WSW,237,0.0,0.0,42,0.00,,---,0.00,VWS V13.01,2013-09-08 14:17:00,
2013-09-08 10:22:00,73.2,48.8,29.96,WSW,237,0.0,0.0,42,0.00,,---,0.00,VWS V13.01,2013-09-08 14:22:00,
2013-09-08 10:27:00,73.6,48.5,29.96,WSW,237,0.0,0.0,41,0.00,,---,0.00,VWS V13.01,2013-09-08 14:27:00,
2013-09-08 10:32:00,74.1,48.3,29.96,WSW,237,0.0,0.0,40,0.00,,---,0.00,VWS V13.01,2013-09-08 14:32:00,
2013-09-08 10:37:00,74.5,47.9,29.96,WSW,237,0.0,0.0,39,0.00,,---,0.00,VWS V13.01,2013-09-08 14:37:00,
2013-09-08 10:42:00,74.7,47.4,29.96,WSW,237,0.0,0.0,38,0.00,,---,0.00,VWS V13.01,2013-09-08 14:42:00,
2013-09-08 10:47:00,75.0,48.4,29.96,WSW,237,0.0,0.0,39,0.00,,---,0.00,VWS V13.01,2013-09-08 14:47:00,
2013-09-08 10:52:00,75.6,46.8,29.96,WSW,239,0.0,0.0,36,0.00,,---,0.00,VWS V13.01,2013-09-08 14:52:00,
2013-09-08 10:57:00,76.3,45.9,29.96,WSW,239,0.0,0.0,34,0.00,,---,0.00,VWS V13.01,2013-09-08 14:57:00,
2013-09-08 11:02:00,76.8,45.6,29.96,WSW,239,0.0,0.0,33,0.00,,---,0.00,VWS V13.01,2013-09-08 15:02:00,
2013-09-08 11:07:00,77.0,45.7,29.96,WSW,239,0.0,0.0,33,0.00,,---,0.00,VWS V13.01,2013-09-08 15:07:00,
2013-09-08 11:12:00,77.0,45.7,29.96,WSW,239,0.0,0.0,33,0.00,,---,0.00,VWS V13.01,2013-09-08 15:12:00,
2013-09-08 11:17:00,77.5,47.0,29.96,WSW,241,0.0,0.0,34,0.00,,---,0.00,VWS V13.01,2013-09-08 15:17:00,
2013-09-08 11:22:00,77.7,46.3,29.96,WSW,241,0.0,0.0,33,0.00,,---,0.00,VWS V13.01,2013-09-08 15:22:00,
2013-09-08 11:27:00,77.9,46.5,29.96,SSW,198,0.0,0.0,33,0.00,,---,0.00,VWS V13.01,2013-09-08 15:27:00,
2013-09-08 11:32:00,77.7,46.3,29.96,SSW,198,0.0,0.0,33,0.00,,---,0.00,VWS V13.01,2013-09-08 15:32:00,
2013-09-08 11:37:00,77.7,46.3,29.96,SSW,198,0.0,0.0,33,0.00,,---,0.00,VWS V13.01,2013-09-08 15:37:00,
2013-09-08 11:42:00,78.3,46.8,29.96,SSW,198,0.0,0.0,33,0.00,,---,0.00,VWS V13.01,2013-09-08 15:42:00,
2013-09-08 11:47:00,78.8,46.5,29.96,SW,230,0.0,0.0,32,0.00,,---,0.00,VWS V13.01,2013-09-08 15:47:00,
2013-09-08 11:52:00,79.3,46.1,29.96,WSW,240,3.1,3.1,31,0.00,,---,0.00,VWS V13.01,2013-09-08 15:52:00,
2013-09-08 11:57:00,79.5,46.3,29.96,WSW,240,0.0,0.0,31,0.00,,---,0.00,VWS V13.01,2013-09-08 15:57:00,
2013-09-08 12:02:00,80.4,47.0,29.96,WSW,240,0.0,0.0,31,0.00,,---,0.00,VWS V13.01,2013-09-08 16:02:00,
2013-09-08 12:07:00,80.8,46.5,29.96,WSW,240,0.0,0.0,30,0.00,,---,0.00,VWS V13.01,2013-09-08 16:07:00,
2013-09-08 12:12:00,81.1,46.8,29.96,WSW,243,0.0,0.0,30,0.00,,---,0.00,VWS V13.01,2013-09-08 16:12:00,
2013-09-08 12:17:00,81.3,47.0,29.96,SW,227,2.7,2.7,30,0.00,,---,0.00,VWS V13.01,2013-09-08 16:17:00,
2013-09-08 12:22:00,81.3,47.0,29.96,SW,224,0.0,0.0,30,0.00,,---,0.00,VWS V13.01,2013-09-08 16:22:00,
2013-09-08 12:27:00,82.2,47.7,29.96,SW,224,0.0,0.0,30,0.00,,---,0.00,VWS V13.01,2013-09-08 16:27:00,
2013-09-08 12:32:00,82.4,47.9,29.96,WSW,240,2.7,2.7,30,0.00,,---,0.00,VWS V13.01,2013-09-08 16:32:00,
2013-09-08 12:37:00,82.8,47.3,29.96,SW,225,0.0,0.0,29,0.00,,---,0.00,VWS V13.01,2013-09-08 16:37:00,
2013-09-08 12:42:00,82.6,47.1,29.96,SW,228,0.0,0.0,29,0.00,,---,0.00,VWS V13.01,2013-09-08 16:42:00,
2013-09-08 12:47:00,82.4,47.0,29.96,WSW,241,0.0,0.0,29,0.00,,---,0.00,VWS V13.01,2013-09-08 16:47:00,
2013-09-08 12:52:00,82.6,47.1,29.96,SW,227,0.0,0.0,29,0.00,,---,0.00,VWS V13.01,2013-09-08 16:52:00,
2013-09-08 12:57:00,83.5,47.9,29.96,WSW,237,0.0,0.0,29,0.00,,---,0.00,VWS V13.01,2013-09-08 16:57:00,
2013-09-08 13:02:00,83.5,47.9,29.96,SW,234,0.0,0.0,29,0.00,,---,0.00,VWS V13.01,2013-09-08 17:02:00,
2013-09-08 13:07:00,83.5,47.9,29.96,WSW,237,3.1,3.1,29,0.00,,---,0.00,VWS V13.01,2013-09-08 17:07:00,
2013-09-08 13:12:00,83.8,48.2,29.96,SW,236,0.0,0.0,29,0.00,,---,0.00,VWS V13.01,2013-09-08 17:12:00,
2013-09-08 13:17:00,84.0,47.4,29.96,WSW,238,0.0,0.0,28,0.00,,---,0.00,VWS V13.01,2013-09-08 17:17:00,
2013-09-08 13:22:00,84.6,46.9,29.96,WSW,238,0.0,0.0,27,0.00,,---,0.00,VWS V13.01,2013-09-08 17:22:00,
2013-09-08 13:27:00,84.6,44.9,29.96,WNW,289,0.0,0.0,25,0.00,,---,0.00,VWS V13.01,2013-09-08 17:27:00,
2013-09-08 13:32:00,84.4,46.8,29.96,SW,229,0.0,0.0,27,0.00,,---,0.00,VWS V13.01,2013-09-08 17:32:00,
2013-09-08 13:37:00,84.4,43.7,29.96,WSW,247,2.2,2.2,24,0.00,,---,0.00,VWS V13.01,2013-09-08 17:37:00,
2013-09-08 13:42:00,84.7,47.1,29.96,WSW,243,0.0,0.0,27,0.00,,---,0.00,VWS V13.01,2013-09-08 17:42:00,
2013-09-08 13:47:00,84.6,46.9,29.96,SW,229,0.0,0.0,27,0.00,,---,0.00,VWS V13.01,2013-09-08 17:47:00,
2013-09-08 13:52:00,84.9,47.2,29.96,SW,233,0.0,0.0,27,0.00,,---,0.00,VWS V13.01,2013-09-08 17:52:00,
2013-09-08 13:57:00,85.8,47.0,29.96,WSW,243,0.0,0.0,26,0.00,,---,0.00,VWS V13.01,2013-09-08 17:57:00,
2013-09-08 14:02:00,85.8,44.9,29.96,SW,235,3.6,3.6,24,0.00,,---,0.00,VWS V13.01,2013-09-08 18:02:00,
2013-09-08 14:07:00,86.2,44.1,29.96,SW,235,0.0,0.0,23,0.00,,---,0.00,VWS V13.01,2013-09-08 18:07:00,
2013-09-08 14:12:00,86.7,43.4,29.96,WSW,240,0.0,0.0,22,0.00,,---,0.00,VWS V13.01,2013-09-08 18:12:00,
2013-09-08 14:17:00,86.9,43.5,29.96,WSW,243,0.0,3.1,22,0.00,,---,0.00,VWS V13.01,2013-09-08 18:17:00,
2013-09-08 14:22:00,87.1,43.7,29.96,NW,308,0.0,0.0,22,0.00,,---,0.00,VWS V13.01,2013-09-08 18:22:00,
2013-09-08 14:27:00,87.6,45.3,29.96,NW,310,0.0,0.0,23,0.00,,---,0.00,VWS V13.01,2013-09-08 18:27:00,
2013-09-08 14:32:00,86.9,42.3,29.96,NW,310,0.0,0.0,21,0.00,,---,0.00,VWS V13.01,2013-09-08 18:32:00,
2013-09-08 14:37:00,85.8,42.6,29.96,NW,310,0.0,0.0,22,0.00,,---,0.00,VWS V13.01,2013-09-08 18:37:00,
2013-09-08 14:42:00,84.9,43.0,29.96,NW,310,0.0,0.0,23,0.00,,---,0.00,VWS V13.01,2013-09-08 18:42:00,
2013-09-08 14:47:00,85.5,43.5,29.96,NW,310,0.0,0.0,23,0.00,,---,0.00,VWS V13.01,2013-09-08 18:47:00,
2013-09-08 14:52:00,86.2,42.9,29.96,NW,312,0.0,0.0,22,0.00,,---,0.00,VWS V13.01,2013-09-08 18:52:00,
2013-09-08 14:57:00,86.0,43.9,29.96,NW,312,0.0,0.0,23,0.00,,---,0.00,VWS V13.01,2013-09-08 18:57:00,
2013-09-08 15:02:00,85.5,43.5,29.96,SSW,205,0.0,0.0,23,0.00,,---,0.00,VWS V13.01,2013-09-08 19:02:00,
2013-09-08 15:07:00,86.2,42.9,29.96,SSW,208,0.0,0.0,22,0.00,,---,0.00,VWS V13.01,2013-09-08 19:07:00,
2013-09-08 15:12:00,87.6,44.1,29.96,SSW,208,0.0,0.0,22,0.00,,---,0.00,VWS V13.01,2013-09-08 19:12:00,
2013-09-08 15:17:00,87.8,41.8,29.96,SSW,208,0.0,0.0,20,0.00,,---,0.00,VWS V13.01,2013-09-08 19:17:00,
2013-09-08 15:22:00,86.7,42.2,29.96,SW,228,0.0,0.0,21,0.00,,---,0.00,VWS V13.01,2013-09-08 19:22:00,
2013-09-08 15:27:00,86.4,41.9,29.96,SW,228,0.0,0.0,21,0.00,,---,0.00,VWS V13.01,2013-09-08 19:27:00,
2013-09-08 15:32:00,84.9,43.0,29.96,SW,228,0.0,0.0,23,0.00,,---,0.00,VWS V13.01,2013-09-08 19:32:00,
2013-09-08 15:37:00,84.4,42.6,29.96,SW,228,0.0,0.0,23,0.00,,---,0.00,VWS V13.01,2013-09-08 19:37:00,
2013-09-08 15:42:00,85.6,44.7,29.96,SW,228,0.0,0.0,24,0.00,,---,0.00,VWS V13.01,2013-09-08 19:42:00,
2013-09-08 15:47:00,86.5,42.0,29.96,ESE,107,0.0,0.0,21,0.00,,---,0.00,VWS V13.01,2013-09-08 19:47:00,
2013-09-08 15:52:00,87.1,42.5,29.96,SW,231,0.0,0.0,21,0.00,,---,0.00,VWS V13.01,2013-09-08 19:52:00,
2013-09-08 15:57:00,87.6,42.9,29.96,SW,231,0.0,0.0,21,0.00,,---,0.00,VWS V13.01,2013-09-08 19:57:00,
2013-09-08 16:02:00,87.1,42.5,29.96,SW,231,0.0,0.0,21,0.00,,---,0.00,VWS V13.01,2013-09-08 20:02:00,
2013-09-08 16:07:00,86.2,41.7,29.96,SW,231,0.0,0.0,21,0.00,,---,0.00,VWS V13.01,2013-09-08 20:07:00,
2013-09-08 16:12:00,85.6,42.5,29.96,SW,231,0.0,0.0,22,0.00,,---,0.00,VWS V13.01,2013-09-08 20:12:00,
2013-09-08 16:17:00,85.1,43.2,29.96,SW,231,0.0,0.0,23,0.00,,---,0.00,VWS V13.01,2013-09-08 20:17:00,
2013-09-08 16:22:00,85.5,45.7,29.96,SW,231,0.0,0.0,25,0.00,,---,0.00,VWS V13.01,2013-09-08 20:22:00,
2013-09-08 16:27:00,85.6,44.7,29.96,SW,231,0.0,0.0,24,0.00,,---,0.00,VWS V13.01,2013-09-08 20:27:00,
2013-09-08 16:32:00,86.9,43.5,29.96,SW,231,0.0,0.0,22,0.00,,---,0.00,VWS V13.01,2013-09-08 20:32:00,
2013-09-08 16:37:00,86.7,43.4,29.96,SE,130,0.0,0.0,22,0.00,,---,0.00,VWS V13.01,2013-09-08 20:37:00,
2013-09-08 16:42:00,86.9,43.5,29.96,SSW,207,0.0,0.0,22,0.00,,---,0.00,VWS V13.01,2013-09-08 20:42:00,
2013-09-08 16:47:00,86.9,43.5,29.96,SSW,207,0.0,0.0,22,0.00,,---,0.00,VWS V13.01,2013-09-08 20:47:00,
2013-09-08 16:52:00,86.7,43.4,29.96,SSW,205,0.0,0.0,22,0.00,,---,0.00,VWS V13.01,2013-09-08 20:52:00,
2013-09-08 16:57:00,86.4,44.2,29.96,SSW,205,0.0,0.0,23,0.00,,---,0.00,VWS V13.01,2013-09-08 20:57:00,
2013-09-08 17:02:00,86.2,42.9,29.96,SSW,212,0.0,0.0,22,0.00,,---,0.00,VWS V13.01,2013-09-08 21:02:00,
2013-09-08 17:07:00,86.4,43.1,29.96,SSW,212,0.0,0.0,22,0.00,,---,0.00,VWS V13.01,2013-09-08 21:07:00,
2013-09-08 17:12:00,86.2,42.9,29.96,SSW,212,0.0,0.0,22,0.00,,---,0.00,VWS V13.01,2013-09-08 21:12:00,
2013-09-08 17:17:00,85.6,42.5,29.96,SSW,212,0.0,0.0,22,0.00,,---,0.00,VWS V13.01,2013-09-08 21:17:00,
2013-09-08 17:22:00,85.3,43.3,29.96,SSW,212,0.0,0.0,23,0.00,,---,0.00,VWS V13.01,2013-09-08 21:22:00,
2013-09-08 17:27:00,84.9,44.1,29.96,SSW,212,0.0,0.0,24,0.00,,---,0.00,VWS V13.01,2013-09-08 21:27:00,
2013-09-08 17:32:00,84.6,44.9,29.96,SSW,212,0.0,0.0,25,0.00,,---,0.00,VWS V13.01,2013-09-08 21:32:00,
2013-09-08 17:37:00,84.6,44.9,29.96,SSW,212,0.0,0.0,25,0.00,,---,0.00,VWS V13.01,2013-09-08 21:37:00,
2013-09-08 17:42:00,84.6,44.9,29.96,SSW,212,0.0,0.0,25,0.00,,---,0.00,VWS V13.01,2013-09-08 21:42:00,
2013-09-08 17:47:00,84.6,44.9,29.96,SSW,212,0.0,0.0,25,0.00,,---,0.00,VWS V13.01,2013-09-08 21:47:00,
2013-09-08 17:52:00,84.6,44.9,29.96,SSW,212,0.0,0.0,25,0.00,,---,0.00,VWS V13.01,2013-09-08 21:52:00,
2013-09-08 17:57:00,84.6,44.9,29.96,SSW,212,0.0,0.0,25,0.00,,---,0.00,VWS V13.01,2013-09-08 21:57:00,
2013-09-08 18:02:00,84.2,44.6,29.96,SSW,212,0.0,0.0,25,0.00,,---,0.00,VWS V13.01,2013-09-08 22:02:00,
2013-09-08 18:07:00,83.8,45.3,29.96,SSW,212,0.0,0.0,26,0.00,,---,0.00,VWS V13.01,2013-09-08 22:07:00,
2013-09-08 18:12:00,83.8,45.3,29.96,SSW,212,0.0,0.0,26,0.00,,---,0.00,VWS V13.01,2013-09-08 22:12:00,
2013-09-08 18:17:00,82.9,47.5,29.96,SSW,212,0.0,0.0,29,0.00,,---,0.00,VWS V13.01,2013-09-08 22:17:00,
2013-09-08 18:22:00,82.6,47.1,29.96,SSW,212,0.0,0.0,29,0.00,,---,0.00,VWS V13.01,2013-09-08 22:22:00,
2013-09-08 18:27:00,82.2,47.7,29.96,SSW,212,0.0,0.0,30,0.00,,---,0.00,VWS V13.01,2013-09-08 22:27:00,
2013-09-08 18:32:00,81.9,47.4,29.96,SSW,212,0.0,0.0,30,0.00,,---,0.00,VWS V13.01,2013-09-08 22:32:00,
2013-09-08 18:37:00,81.9,47.4,29.96,SSW,212,0.0,0.0,30,0.00,,---,0.00,VWS V13.01,2013-09-08 22:37:00,
2013-09-08 18:42:00,81.3,47.8,29.96,SSW,212,0.0,0.0,31,0.00,,---,0.00,VWS V13.01,2013-09-08 22:42:00,
2013-09-08 18:47:00,81.0,47.5,29.96,SSW,212,0.0,0.0,31,0.00,,---,0.00,VWS V13.01,2013-09-08 22:47:00,
2013-09-08 18:52:00,80.8,47.4,29.96,SSW,212,0.0,0.0,31,0.00,,---,0.00,VWS V13.01,2013-09-08 22:52:00,
2013-09-08 18:57:00,80.4,47.9,29.96,SSW,212,0.0,0.0,32,0.00,,---,0.00,VWS V13.01,2013-09-08 22:57:00,
2013-09-08 19:02:00,80.2,48.5,29.96,SSW,212,0.0,0.0,33,0.00,,---,0.00,VWS V13.01,2013-09-08 23:02:00,
2013-09-08 19:07:00,80.2,48.5,29.96,SSW,212,0.0,0.0,33,0.00,,---,0.00,VWS V13.01,2013-09-08 23:07:00,
2013-09-08 19:12:00,79.7,53.3,29.96,SSW,212,0.0,0.0,40,0.00,,---,0.00,VWS V13.01,2013-09-08 23:12:00,
2013-09-08 19:17:00,79.7,53.3,29.96,SSW,212,0.0,0.0,40,0.00,,---,0.00,VWS V13.01,2013-09-08 23:17:00,
2013-09-08 19:22:00,79.2,52.8,29.96,SSW,212,0.0,0.0,40,0.00,,---,0.00,VWS V13.01,2013-09-08 23:22:00,
2013-09-08 19:27:00,79.0,53.3,29.96,SSW,212,0.0,0.0,41,0.00,,---,0.00,VWS V13.01,2013-09-08 23:27:00,
2013-09-08 19:32:00,78.6,53.6,29.96,SSW,212,0.0,0.0,42,0.00,,---,0.00,VWS V13.01,2013-09-08 23:32:00,
2013-09-08 19:37:00,78.4,53.5,29.96,SSW,212,0.0,0.0,42,0.00,,---,0.00,VWS V13.01,2013-09-08 23:37:00,
2013-09-08 19:42:00,78.1,53.8,29.96,SSW,212,0.0,0.0,43,0.00,,---,0.00,VWS V13.01,2013-09-08 23:42:00,
2013-09-08 19:47:00,77.9,53.6,29.96,SSW,212,0.0,0.0,43,0.00,,---,0.00,VWS V13.01,2013-09-08 23:47:00,
2013-09-08 19:52:00,77.9,53.0,29.96,SSW,212,0.0,0.0,42,0.00,,---,0.00,VWS V13.01,2013-09-08 23:52:00,
2013-09-08 19:57:00,77.7,53.5,29.96,SSW,212,0.0,0.0,43,0.00,,---,0.00,VWS V13.01,2013-09-08 23:57:00,
2013-09-08 20:02:00,77.4,53.8,29.96,SSW,212,0.0,0.0,44,0.00,,---,0.00,VWS V13.01,2013-09-09 00:02:00,
2013-09-08 20:07:00,77.2,53.6,29.96,SSW,212,0.0,0.0,44,0.00,,---,0.00,VWS V13.01,2013-09-09 00:07:00,
2013-09-08 20:12:00,77.2,53.6,29.96,SSW,212,0.0,0.0,44,0.00,,---,0.00,VWS V13.01,2013-09-09 00:12:00,
2013-09-08 20:17:00,76.8,53.3,29.96,SSW,213,0.0,0.0,44,0.00,,---,0.00,VWS V13.01,2013-09-09 00:17:00,
2013-09-08 20:22:00,76.5,53.6,29.96,SSW,212,0.0,0.0,45,0.00,,---,0.00,VWS V13.01,2013-09-09 00:22:00,
2013-09-08 20:27:00,76.3,54.0,29.96,SSW,212,0.0,0.0,46,0.00,,---,0.00,VWS V13.01,2013-09-09 00:27:00,
2013-09-08 20:32:00,76.1,53.8,29.96,SSW,212,0.0,0.0,46,0.00,,---,0.00,VWS V13.01,2013-09-09 00:32:00,
2013-09-08 20:37:00,75.9,53.7,29.96,SSW,212,0.0,0.0,46,0.00,,---,0.00,VWS V13.01,2013-09-09 00:37:00,
2013-09-08 20:42:00,75.9,53.7,29.96,SSW,212,0.0,0.0,46,0.00,,---,0.00,VWS V13.01,2013-09-09 00:42:00,
2013-09-08 20:47:00,75.7,53.5,29.96,SSW,212,0.0,0.0,46,0.00,,---,0.00,VWS V13.01,2013-09-09 00:47:00,
2013-09-08 20:52:00,75.6,53.9,29.96,SSW,212,0.0,0.0,47,0.00,,---,0.00,VWS V13.01,2013-09-09 00:52:00,
2013-09-08 20:57:00,75.6,54.5,29.96,SSW,212,0.0,0.0,48,0.00,,---,0.00,VWS V13.01,2013-09-09 00:57:00,
2013-09-08 21:02:00,75.6,54.5,29.96,SSW,212,0.0,0.0,48,0.00,,---,0.00,VWS V13.01,2013-09-09 01:02:00,
2013-09-08 21:07:00,75.2,54.2,29.96,SSW,212,0.0,0.0,48,0.00,,---,0.00,VWS V13.01,2013-09-09 01:07:00,
2013-09-08 21:12:00,75.2,54.2,29.96,SSW,212,0.0,0.0,48,0.00,,---,0.00,VWS V13.01,2013-09-09 01:12:00,
2013-09-08 21:17:00,75.2,54.2,29.96,SSW,212,0.0,0.0,48,0.00,,---,0.00,VWS V13.01,2013-09-09 01:17:00,
2013-09-08 21:22:00,75.0,54.0,29.96,SSW,212,0.0,0.0,48,0.00,,---,0.00,VWS V13.01,2013-09-09 01:22:00,
2013-09-08 21:27:00,74.8,53.8,29.96,SSW,212,0.0,0.0,48,0.00,,---,0.00,VWS V13.01,2013-09-09 01:27:00,
2013-09-08 21:32:00,74.8,53.8,29.96,SSW,213,0.0,0.0,48,0.00,,---,0.00,VWS V13.01,2013-09-09 01:32:00,
2013-09-08 21:37:00,74.7,53.7,29.96,SSW,212,0.0,0.0,48,0.00,,---,0.00,VWS V13.01,2013-09-09 01:37:00,
2013-09-08 21:42:00,74.5,54.1,29.96,SSW,212,0.0,0.0,49,0.00,,---,0.00,VWS V13.01,2013-09-09 01:42:00,
2013-09-08 21:47:00,74.3,54.5,29.96,SSW,212,0.0,0.0,50,0.00,,---,0.00,VWS V13.01,2013-09-09 01:47:00,
2013-09-08 21:52:00,74.1,55.4,29.96,SSW,212,0.0,0.0,52,0.00,,---,0.00,VWS V13.01,2013-09-09 01:52:00,
2013-09-08 21:57:00,73.9,55.2,29.96,SSW,212,0.0,0.0,52,0.00,,---,0.00,VWS V13.01,2013-09-09 01:57:00,
2013-09-08 22:02:00,73.8,55.1,29.96,SSW,212,0.0,0.0,52,0.00,,---,0.00,VWS V13.01,2013-09-09 02:02:00,
2013-09-08 22:07:00,73.6,55.4,29.96,SSW,212,0.0,0.0,53,0.00,,---,0.00,VWS V13.01,2013-09-09 02:07:00,
2013-09-08 22:12:00,73.6,55.4,29.96,SSW,212,0.0,0.0,53,0.00,,---,0.00,VWS V13.01,2013-09-09 02:12:00,
2013-09-08 22:17:00,73.4,55.2,29.96,SSW,212,0.0,0.0,53,0.00,,---,0.00,VWS V13.01,2013-09-09 02:17:00,
2013-09-08 22:22:00,73.4,55.2,29.96,SSW,212,0.0,0.0,53,0.00,,---,0.00,VWS V13.01,2013-09-09 02:22:00,
2013-09-08 22:27:00,73.4,55.2,29.96,SSW,212,0.0,0.0,53,0.00,,---,0.00,VWS V13.01,2013-09-09 02:27:00,
2013-09-08 22:33:00,73.2,55.6,29.96,SSW,212,0.0,0.0,54,0.00,,---,0.00,VWS V13.01,2013-09-09 02:33:00,
2013-09-08 22:37:00,73.2,55.6,29.96,SSW,213,0.0,0.0,54,0.00,,---,0.00,VWS V13.01,2013-09-09 02:37:00,
2013-09-08 22:43:00,73.0,55.4,29.96,SSW,212,0.0,0.0,54,0.00,,---,0.00,VWS V13.01,2013-09-09 02:43:00,
2013-09-08 22:47:00,72.9,55.3,29.96,SSW,212,0.0,0.0,54,0.00,,---,0.00,VWS V13.01,2013-09-09 02:47:00,
2013-09-08 22:52:00,72.9,55.3,29.96,SSW,212,0.0,0.0,54,0.00,,---,0.00,VWS V13.01,2013-09-09 02:52:00,
2013-09-08 22:58:00,72.7,55.6,29.96,SSW,212,0.0,0.0,55,0.00,,---,0.00,VWS V13.01,2013-09-09 02:58:00,
2013-09-08 23:03:00,72.5,54.9,29.96,SSW,212,0.0,0.0,54,0.00,,---,0.00,VWS V13.01,2013-09-09 03:03:00,
2013-09-08 23:08:00,72.5,55.9,29.96,SSW,212,0.0,0.0,56,0.00,,---,0.00,VWS V13.01,2013-09-09 03:08:00,
2013-09-08 23:12:00,72.3,55.8,29.96,SSW,212,0.0,0.0,56,0.00,,---,0.00,VWS V13.01,2013-09-09 03:12:00,
2013-09-08 23:18:00,72.1,56.1,29.96,SSW,212,0.0,0.0,57,0.00,,---,0.00,VWS V13.01,2013-09-09 03:18:00,
2013-09-08 23:22:00,72.0,55.9,29.96,SSW,212,0.0,0.0,57,0.00,,---,0.00,VWS V13.01,2013-09-09 03:22:00,
2013-09-08 23:27:00,71.8,55.8,29.96,SSW,212,0.0,0.0,57,0.00,,---,0.00,VWS V13.01,2013-09-09 03:27:00,
2013-09-08 23:32:00,71.8,55.8,29.96,SSW,212,0.0,0.0,57,0.00,,---,0.00,VWS V13.01,2013-09-09 03:32:00,
2013-09-08 23:37:00,71.8,55.8,29.96,SSW,212,0.0,0.0,57,0.00,,---,0.00,VWS V13.01,2013-09-09 03:37:00,
2013-09-08 23:43:00,71.8,56.2,29.96,SSW,212,0.0,0.0,58,0.00,,---,0.00,VWS V13.01,2013-09-09 03:43:00,
2013-09-08 23:47:00,71.8,56.2,29.96,SSW,212,0.0,0.0,58,0.00,,---,0.00,VWS V13.01,2013-09-09 03:47:00,
2013-09-08 23:52:00,71.6,56.1,29.96,SSW,213,0.0,0.0,58,0.00,,---,0.00,VWS V13.01,2013-09-09 03:52:00,
2013-09-08 23:57:00,71.6,56.1,29.96,SSW,212,0.0,0.0,58,0.00,,---,0.00,VWS V13.01,2013-09-09 03:57:00,